Regional Weather Roundup
Issued by NWS

Home | Current Version | Previous Version | Graphics & Text | Print | Product List | Glossary On
Versions: 1 2 3 4 5 6 7 8 9 10 11 12 13 14 15 16 17 18 19 20 21 22 23 24 25 26 27 28 29 30 31 32 33 34 35 36 37 38 39 40 41 42 43 44 45 46 47 48 49 50
000
ASUS43 KMKX 270200
RWRWI

WISCONSIN REGIONAL WEATHER ROUNDUP
NATIONAL WEATHER SERVICE MILWAUKEE/SULLIVAN WI
900 PM CDT THU MAR 26 2015

NOTE: "FAIR" INDICATES FEW OR NO CLOUDS BELOW 12,000 FEET WITH NO
SIGNIFICANT WEATHER AND/OR OBSTRUCTIONS TO VISIBILITY.

WIZ001-002-006>008-014>016-023>028-270300-
NORTHWEST WISCONSIN

CITY           SKY/WX    TMP DP  RH WIND       PRES   REMARKS
SUPERIOR ARPT  CLEAR     26   3  37 N8        30.20R WCI  17
ASHLAND        CLEAR     17   9  70 N3        30.18R
HAYWARD        CLEAR     24   3  40 N6        30.15R WCI  17
SIREN          CLEAR     27   1  33 N6        30.17R WCI  20
CUMBERLAND     CLEAR     27   1  33 N10       30.13R WCI  17
RICE LAKE      CLEAR     26   8  44 N9        30.14R WCI  17
CHETEK         CLEAR     27   6  41 N8        30.13R WCI  19
LADYSMITH      FAIR      26   5  41 N10       30.13R WCI  15
EAU CLAIRE     NOT AVBL
MENOMONIE      CLEAR     28  15  58 N5        30.13R WCI  23
NEW RICHMOND   CLEAR     27   8  44 N9        30.15R WCI  18
OSCEOLA        CLEAR     29   7  38 N6        30.19R WCI  23
$$

WIZ003>005-009-010-017-018-270300-
NORTH CENTRAL WISCONSIN

CITY           SKY/WX    TMP DP  RH WIND       PRES   REMARKS
MANITOWISH WTR PTCLDY    15   5  62 CALM      30.09S
ARBOR VITAE    PTCLDY    17   5  60 N5        30.10R WCI  10
WOODRUFF       PTCLDY    17   5  60 N5        30.10R WCI  10
RHINELANDER    PTCLDY    15   7  70 NE3       30.10R
EAGLE RIVER    CLOUDY    16   4  60 N3        30.09R
LAND O LAKES   CLOUDY    16   7  67 N3        30.09S
PHILLIPS       CLEAR     19   7  61 N6        30.10R WCI  11
TOMAHAWK       CLEAR     17   4  57 CALM      30.11R
MEDFORD        CLEAR     19   8  63 N7        30.09R WCI  10
MERRILL        CLEAR     20   7  59 N7        30.10R WCI  11
$$

WIZ029-030-035-036-043>047-270300-
CENTRAL WISCONSIN

CITY           SKY/WX    TMP DP  RH WIND       PRES   REMARKS
WAUSAU         CLEAR     22   7  52 N9        30.09R WCI  12
MOSINEE        CLEAR     21   9  58 N12G17    30.11R WCI   9
MARSHFIELD     CLEAR     24  10  55 NE9       30.09R WCI  14
STEVENS POINT  PTCLDY    23   9  53 N7        30.10R WCI  15
WAUPACA        CLOUDY    30  11  46 N10G16    30.09R WCI  21
WAUTOMA        NOT AVBL
WISC RAPIDS    PTCLDY    26  10  50 N13       30.11R WCI  15
CAMP DOUGLAS   NOT AVBL
$$

WIZ011>013-019>022-031-037>040-048>050-270300-
NORTHEAST WISCONSIN

CITY           SKY/WX    TMP DP  RH WIND       PRES   REMARKS
ANTIGO         CLOUDY    19   9  63 N9        30.08R WCI   8
SHAWANO        CLOUDY    28  15  57 N9        30.10R WCI  19
OCONTO         CLOUDY    25  12  57 N9G17     30.11R WCI  16
STURGEON BAY   CLOUDY    25  10  54 N16G23    30.12R WCI  12
GREEN BAY      CLOUDY    28  17  63 N14       30.10R WCI  17
MANITOWOC      NOT AVBL
APPLETON       CLOUDY    27  12  54 N17       30.08R WCI  14
CLINTONVILLE   CLOUDY    28  12  50 N12       30.09R WCI  18
OSHKOSH        CLOUDY    29  15  56 N17       30.08R WCI  17
$$

WIZ032>034-041-042-053>061-270300-
SOUTHWEST WISCONSIN

CITY           SKY/WX    TMP DP  RH WIND       PRES   REMARKS
LA CROSSE      MOCLDY    32  18  56 N9        30.11R WCI  24
SPARTA         CLOUDY    30  13  49 N3        30.11R
VIROQUA        CLOUDY    30  18  59 N13       30.07R WCI  20
BOSCOBEL       CLOUDY    34  19  54 N5        30.10R WCI  30
PRAIRIE DU CHI CLOUDY    33  20  58 NW6       30.10R WCI  27
PLATTEVILLE    CLOUDY    32  22  67 NW6       30.07R WCI  26
$$

WIZ056-057-062-063-064-067-068-270300-
SOUTH CENTRAL WISCONSIN

CITY           SKY/WX    TMP DP  RH WIND       PRES   REMARKS
REEDSBURG      CLOUDY    30  18  60 N14       30.08R WCI  19
BARABOO/DELLS  CLOUDY    30  14  51 N9G18     30.08R WCI  21
LONE ROCK      NOT AVBL
MINERAL POINT  CLOUDY    32  21  64 N5        30.06R WCI  27
MADISON        CLOUDY    31  16  54 N16       30.07R WCI  20
MIDDLETON      CLOUDY    33  18  55 N12       30.07R WCI  24
WATERTOWN      CLOUDY    30  16  55 N7        30.06R WCI  23
MONROE         CLOUDY    32  23  69 N8        30.04R WCI  25
JANESVILLE     CLOUDY    34  19  55 NE12G17   30.05R WCI  25
$$

WIZ051-052-058>065-066-070>072-270300-
SOUTHEAST WISCONSIN

CITY           SKY/WX    TMP DP  RH WIND       PRES   REMARKS
MILWAUKEE      MOCLDY    31  15  52 N15       30.05R WCI  20
WAUKESHA       CLOUDY    28  18  64 N9        30.06R WCI  20
MILWAUKEE/TIMM NOT AVBL
RACINE         CLOUDY    32  16  51 N12       30.06R WCI  23
BURLINGTON     CLOUDY    30  17  57 N13G18    30.05R WCI  20
KENOSHA        CLOUDY    32  20  61 N10       30.05R WCI  24
FOND DU LAC    CLOUDY    30  16  56 N13       30.07R WCI  20
SHEBOYGAN      CLOUDY    29  19  66 N9        30.06R WCI  20
WEST BEND      CLOUDY    30  16  55 N12       30.05R WCI  21
JUNEAU         CLOUDY    29  16  58 N14G20    30.07R WCI  19
$$

LSZ147-162-270300-
LAKE SUPERIOR

STATION/POSITION TIME  TEMP    WIND        PRES    WAVE
                       AIR SEA DIR/SP/G            HT/PER
                 (UTC) (F)     (DEG/KT/KT) (MB)    (FT/S)
DEVILS ISLAND    0100   26     360/ 20/ 22 1023.0R
PORT WING        0100   26      30/  5/  8 1022.0
SAXON HARBOR     0100   27      10/ 15/ 18 1021.3R
$$

LMZ867-665-643>646-270300-
LAKE MICHIGAN

STATION/POSITION TIME  TEMP    WIND        PRES    WAVE
                       AIR SEA DIR/SP/G            HT/PER
                 (UTC) (F)     (DEG/KT/KT) (MB)    (FT/S)
NORTHPORT PIER   0100   24     340/ 22/ 26 1018.6R
SISTER BAY       0117   23     360/ 24/ 29   N/A
KEWAUNEE LAKESHO 0100   27      10/ 10/ 17 1017.3R
SHEBOYGAN LAKESH 0100   31     330/ 14/ 16 1018.6R
PORT WASHINGTON  0100   32     330/  6/ 12 1017.9
MILWAUKEE LAKESH 0100   33     330/ 10/ 14   N/A
KENOSHA   LAKESH 0100   34     340/ 16/ 20 1016.6R
$$

TC  - TEMPERATURE IN CELSIUS
VSB - VISIBILITY IN STATUTE MILES
WCI - WIND CHILL INDEX
HX  - HEAT INDEX




USA.gov is the U.S. government's official web portal to all federal, state and local government web resources and services.